This demonstration page uses our WeatherBlox Daily Observations layout. Learn more.

38.88101, -77.10428

Hourly Observations for August 3, 2016

Temp ( °F °C ) Dew Point ( °F °C ) Humidity (%) Winds ( mph kmh ) Pressure ( in mb ) Visibility ( mi km ) Precip ( " mm )
12:52 am 00:52 Cloudy 75 23.9 67 19.4 76 76 E 10 17 30.12 1020 10 16.09344 0 0
1:52 am 01:52 Mostly Cloudy 74 23.3 66 18.9 76 76 ENE 8 13 30.12 1020 10 16.09344 0 0
2:52 am 02:52 Mostly Cloudy 73 22.8 66 18.9 79 79 E 6 9 30.09 1019 10 16.09344 0 0
3:52 am 03:52 Mostly Cloudy 73 22.8 65 18.3 76 76 NE 5 7 30.09 1019 10 16.09344 0 0
4:52 am 04:52 Cloudy 73 22.8 66 18.9 79 79 NE 8 13 30.09 1019 10 16.09344 0 0
5:52 am 05:52 Mostly Cloudy 72 22.2 66 18.9 82 82 ENE 9 15 30.12 1020 10 16.09344 0 0
6:52 am 06:52 Partly Cloudy 72 22.2 66 18.9 82 82 NE 7 11 30.12 1020 10 16.09344 0 0
7:52 am 07:52 Mostly Cloudy 73 22.8 67 19.4 81 81 ENE 8 13 30.15 1021 10 16.09344 0 0
8:15 am 08:15 Cloudy 74 23.3 67 19.4 79 79 ENE 8 13 30.15 1021 10 16.09344 0 0
8:39 am 08:39 Cloudy 75 23.9 67 19.4 76 76 ENE 8 13 30.15 1021 10 16.09344 0 0
8:52 am 08:52 Cloudy 75 23.9 66 18.9 74 74 ENE 9 15 30.15 1021 10 16.09344 0 0
9:17 am 09:17 Mostly Cloudy 76 24.4 67 19.4 74 74 ENE 8 13 30.15 1021 10 16.09344 0 0
9:29 am 09:29 Mostly Cloudy 77 25 66 18.9 69 69 NE 10 17 30.15 1021 10 16.09344 0 0
9:52 am 09:52 Mostly Cloudy 76 24.4 66 18.9 72 72 NE 10 17 30.15 1021 10 16.09344 0 0
10:17 am 10:17 Mostly Cloudy 78 25.6 66 18.9 67 67 E 10 17 30.15 1021 10 16.09344 0 0
10:52 am 10:52 Mostly Cloudy 79 26.1 65 18.3 62 62 E 8 13 30.15 1021 10 16.09344 0 0
11:45 am 11:45 Mostly Cloudy 81 27.2 65 18.3 58 58 NE 12 19 30.15 1021 10 16.09344 0 0
11:52 am 11:52 Mostly Cloudy 80 26.7 65 18.3 60 60 NE 8 13 30.15 1021 10 16.09344 0 0
12:52 pm 12:52 Mostly Cloudy 81 27.2 65 18.3 58 58 ENE 9 15 30.15 1021 10 16.09344 0 0
1:52 pm 13:52 Mostly Cloudy 82 27.8 65 18.3 56 56 N 6 9 30.12 1020 10 16.09344 0 0
2:52 pm 14:52 Cloudy 82 27.8 65 18.3 56 56 ESE 7 11 30.12 1020 10 16.09344 0 0
3:52 pm 15:52 Mostly Cloudy 83 28.3 65 18.3 55 55 E 9 15 30.12 1020 10 16.09344 0 0
4:52 pm 16:52 Cloudy 81 27.2 65 18.3 58 58 E 8 13 30.12 1020 10 16.09344 0 0
5:52 pm 17:52 Cloudy 81 27.2 65 18.3 58 58 ESE 7 11 30.12 1020 10 16.09344 0 0
6:52 pm 18:52 Mostly Cloudy 80 26.7 64 17.8 58 58 E 7 11 30.12 1020 10 16.09344 0 0
7:52 pm 19:52 Mostly Cloudy 80 26.7 64 17.8 58 58 ESE 9 15 30.12 1020 10 16.09344 0 0
8:52 pm 20:52 Partly Cloudy 78 25.6 64 17.8 62 62 E 6 9 30.12 1020 10 16.09344 0 0
9:52 pm 21:52 Partly Cloudy 77 25 65 18.3 66 66 SE 5 7 30.12 1020 10 16.09344 0 0
10:52 pm 22:52 Mostly Clear 76 24.4 65 18.3 69 69 ESE 6 9 30.12 1020 10 16.09344 0 0
11:52 pm 23:52 Clear 74 23.3 65 18.3 74 74 Calm 30.12 1020 10 16.09344 0 0

Powered by AerisWeather